Regional Weather Roundup
Issued by NWS

Home | Current Version | Previous Version | Graphics & Text | Print | Product List | Glossary On
Versions: 1 2 3 4 5 6 7 8 9 10 11 12 13 14 15 16 17 18 19 20 21 22 23 24 25 26 27 28 29 30 31 32 33 34 35 36 37 38 39 40 41 42 43 44 45 46 47 48 49 50
000
ASUS43 KBIS 252320
RWRND

NORTH DAKOTA REGIONAL WEATHER ROUNDUP
NATIONAL WEATHER SERVICE BISMARCK ND
600 PM CDT FRI JUL 25 2014

NOTE: "FAIR" INDICATES FEW OR NO CLOUDS BELOW 12,000 FEET WITH NO
SIGNIFICANT WEATHER AND/OR OBSTRUCTIONS TO VISIBILITY.


NDZ001>003-009>011-017-260000-
NORTHWEST NORTH DAKOTA

CITY           SKY/WX    TMP DP  RH WIND       PRES   REMARKS
WILLISTON      SUNNY     84  38  19 W14G26    29.75S
MINOT          SUNNY     79  47  32 SW8       29.77S
MINOT AFB      SUNNY     78  53  42 W6        29.76F
$$

NDZ018>021-031>035-040>046-260000-
SOUTHWEST NORTH DAKOTA

CITY           SKY/WX    TMP DP  RH WIND       PRES   REMARKS
BISMARCK       SUNNY     83  47  28 MISG      29.81F
DICKINSON      SUNNY     83  45  26 MISG      29.80F
GARRISON         N/A     77  52  41 S3        29.79F
HETTINGER ARPT SUNNY     81  46  29 S8        29.86S
$$

NDZ004>008-012>016-024-026-027-054-260000-
NORTHEAST NORTH DAKOTA

CITY           SKY/WX    TMP DP  RH WIND       PRES   REMARKS
GRAND FORKS    MOSUNNY   80  55  42 NW10      29.72F
GRND FRKS AFB  SUNNY     80  55  43 W12       29.74F
DEVILS LAKE    SUNNY     77  52  41 W15G22    29.77R
$$

NDZ022-023-025-028>030-036>039-047>053-260000-
SOUTHEAST NORTH DAKOTA

CITY           SKY/WX    TMP DP  RH WIND       PRES   REMARKS
FARGO          MOSUNNY   82  68  62 W9        29.74F
JAMESTOWN      SUNNY     79  51  37 NW12      29.79S
$$



USA.gov is the U.S. government's official web portal to all federal, state and local government web resources and services.